| time (UTC) | temp F | wind direction | speed MPH | gust MPH | rain 1hr in | rain 24hr in | rain mn in | humidity % | barometer mb |
| 20260508151528 | 46 | 304 | 2.0 | 6.0 | 0.00 | 0.09 | 0.03 | 84 | 1014.7 |
| 20260508150033 | 45 | 120 | 1.0 | 3.0 | 0.00 | 0.09 | 0.03 | 84 | 1014.6 |
| 20260508144537 | 45 | 155 | 1.0 | 6.0 | 0.00 | 0.09 | 0.03 | 86 | 1014.6 |
| 20260508143033 | 44 | 156 | 2.0 | 7.0 | 0.00 | 0.09 | 0.03 | 89 | 1014.5 |
| 20260508141525 | 44 | 148 | 1.0 | 5.0 | 0.00 | 0.09 | 0.03 | 92 | 1014.5 |
| 20260508140015 | 43 | 146 | 2.0 | 8.0 | 0.00 | 0.09 | 0.03 | 94 | 1014.5 |
| 20260508134515 | 42 | 196 | 0.0 | 3.0 | 0.00 | 0.09 | 0.03 | 95 | 1014.7 |
| 20260508133015 | 41 | 311 | 0.0 | 4.0 | 0.01 | 0.09 | 0.03 | 96 | 1014.8 |
| 20260508131514 | 41 | 303 | 0.0 | 2.0 | 0.01 | 0.09 | 0.03 | 96 | 1014.7 |
| 20260508130017 | 41 | 109 | 0.0 | 3.0 | 0.02 | 0.09 | 0.03 | 97 | 1014.5 |
| 20260508124512 | 40 | 289 | 1.0 | 3.0 | 0.03 | 0.09 | 0.03 | 97 | 1014.6 |
| 20260508123012 | 39 | 271 | 0.0 | 2.0 | 0.02 | 0.08 | 0.02 | 97 | 1014.6 |
| 20260508121516 | 39 | 299 | 0.0 | 6.0 | 0.02 | 0.08 | 0.02 | 97 | 1014.6 |
| 20260508120009 | 41 | 287 | 2.0 | 6.0 | 0.01 | 0.07 | 0.01 | 97 | 1014.4 |
| 20260508114511 | 40 | 298 | 0.0 | 3.0 | 0.00 | 0.06 | 0.00 | 97 | 1014.0 |
| 20260508113125 | 40 | 122 | 0.0 | 1.0 | 0.00 | 0.06 | 0.00 | 97 | 1013.5 |
| 20260508111557 | 40 | 122 | 0.0 | 2.0 | 0.00 | 0.06 | 0.00 | 97 | 1013.3 |
| 20260508110056 | 40 | 122 | 1.0 | 2.0 | 0.00 | 0.06 | 0.00 | 97 | 1013.1 |
| 20260508104559 | 39 | 122 | 0.0 | 0.0 | 0.00 | 0.06 | 0.00 | 97 | 1013.0 |
| 20260508103104 | 39 | 122 | 0.0 | 0.0 | 0.00 | 0.06 | 0.00 | 97 | 1012.9 |
| 20260508101555 | 39 | 122 | 0.0 | 0.0 | 0.00 | 0.06 | 0.00 | 97 | 1013.0 |
| 20260508100055 | 39 | 122 | 0.0 | 0.0 | 0.00 | 0.06 | 0.00 | 97 | 1013.0 |
| 20260508094552 | 39 | 122 | 0.0 | 0.0 | 0.00 | 0.06 | 0.00 | 97 | 1013.1 |
| 20260508093055 | 39 | 122 | 0.0 | 0.0 | 0.00 | 0.06 | 0.00 | 97 | 1013.3 |
| 20260508091551 | 38 | 122 | 0.0 | 0.0 | 0.00 | 0.06 | 0.00 | 97 | 1013.5 |
| 20260508090051 | 38 | 122 | 0.0 | 0.0 | 0.00 | 0.06 | 0.00 | 96 | 1013.6 |
| 20260508084549 | 38 | 122 | 0.0 | 0.0 | 0.00 | 0.06 | 0.00 | 97 | 1013.5 |
| 20260508083047 | 38 | 122 | 0.0 | 0.0 | 0.00 | 0.06 | 0.00 | 96 | 1013.5 |
| 20260508081545 | 38 | 122 | 0.0 | 0.0 | 0.00 | 0.06 | 0.00 | 96 | 1013.3 |
| 20260508080044 | 38 | 122 | 0.0 | 0.0 | 0.00 | 0.06 | 0.00 | 96 | 1013.4 |
| 20260508074543 | 38 | 122 | 0.0 | 0.0 | 0.00 | 0.06 | 0.00 | 96 | 1013.4 |
| 20260508073042 | 38 | 122 | 0.0 | 0.0 | 0.00 | 0.06 | 0.00 | 96 | 1013.4 |
| 20260508071541 | 38 | 122 | 0.0 | 0.0 | 0.00 | 0.06 | 0.00 | 96 | 1013.4 |
| 20260508070039 | 39 | 122 | 0.0 | 1.0 | 0.00 | 0.06 | 0.00 | 96 | 1013.4 |
| 20260508064557 | 39 | 122 | 0.0 | 0.0 | 0.00 | 0.06 | 0.00 | 96 | 1013.5 |
| 20260508063038 | 39 | 122 | 0.0 | 1.0 | 0.00 | 0.06 | 0.00 | 96 | 1013.2 |
| 20260508061533 | 39 | 122 | 0.0 | 0.0 | 0.00 | 0.06 | 0.00 | 95 | 1013.5 |
| 20260508060036 | 40 | 122 | 0.0 | 2.0 | 0.00 | 0.06 | 0.00 | 95 | 1013.5 |
| 20260508054547 | 41 | 109 | 0.0 | 1.0 | 0.00 | 0.06 | 0.00 | 95 | 1013.7 |
| 20260508053026 | 41 | 109 | 0.0 | 2.0 | 0.00 | 0.06 | 0.00 | 95 | 1013.9 |
| 20260508051528 | 42 | 327 | 0.0 | 2.0 | 0.00 | 0.06 | 0.00 | 95 | 1014.0 |
| 20260508050032 | 42 | 336 | 0.0 | 2.0 | 0.00 | 0.06 | 0.00 | 95 | 1013.8 |
| 20260508044524 | 42 | 273 | 0.0 | 0.0 | 0.00 | 0.06 | 0.00 | 95 | 1013.7 |
| 20260508043029 | 42 | 273 | 0.0 | 0.0 | 0.01 | 0.06 | 0.00 | 95 | 1013.8 |
| 20260508041518 | 42 | 273 | 0.0 | 0.0 | 0.03 | 0.06 | 0.00 | 94 | 1013.5 |
| 20260508040016 | 42 | 284 | 0.0 | 2.0 | 0.03 | 0.06 | 0.00 | 94 | 1013.5 |
| 20260508034523 | 42 | 272 | 0.0 | 2.0 | 0.05 | 0.06 | 0.06 | 93 | 1013.7 |
| 20260508033015 | 42 | 319 | 0.0 | 2.0 | 0.04 | 0.05 | 0.05 | 92 | 1013.6 |
| 20260508031514 | 42 | 263 | 0.0 | 1.0 | 0.02 | 0.03 | 0.03 | 91 | 1013.7 |
| 20260508024519 | 43 | 284 | 0.0 | 4.0 | 0.00 | 0.01 | 0.01 | 88 | 1013.9 |
| 20260508023014 | 43 | 276 | 1.0 | 3.0 | 0.00 | 0.01 | 0.01 | 87 | 1013.7 |
| 20260508021512 | 43 | 281 | 1.0 | 6.0 | 0.00 | 0.01 | 0.01 | 86 | 1013.6 |
| 20260508020013 | 44 | 271 | 2.0 | 4.0 | 0.00 | 0.01 | 0.01 | 85 | 1013.4 |
| 20260508014511 | 44 | 267 | 1.0 | 3.0 | 0.00 | 0.01 | 0.01 | 84 | 1013.3 |
| 20260508013010 | 44 | 274 | 1.0 | 5.0 | 0.00 | 0.01 | 0.01 | 83 | 1013.2 |
| 20260508011511 | 45 | 320 | 1.0 | 5.0 | 0.00 | 0.01 | 0.01 | 81 | 1013.1 |
| 20260508010020 | 45 | 290 | 0.0 | 5.0 | 0.00 | 0.01 | 0.01 | 80 | 1013.0 |
| 20260508004507 | 45 | 306 | 0.0 | 0.0 | 0.00 | 0.01 | 0.01 | 76 | 1012.6 |
| 20260508003007 | 45 | 306 | 0.0 | 0.0 | 0.00 | 0.01 | 0.01 | 76 | 1012.4 |
| 20260508001509 | 45 | 306 | 0.0 | 0.0 | 0.00 | 0.01 | 0.01 | 73 | 1012.4 |
| 20260508000006 | 46 | 306 | 0.0 | 0.0 | 0.00 | 0.01 | 0.01 | 71 | 1012.1 |
| 20260507234510 | 47 | 306 | 0.0 | 0.0 | 0.00 | 0.05 | 0.01 | 68 | 1012.2 |
| 20260507233008 | 48 | 306 | 0.0 | 1.0 | 0.00 | 0.05 | 0.01 | 66 | 1012.1 |
| 20260507231504 | 48 | 302 | 0.0 | 6.0 | 0.00 | 0.05 | 0.01 | 63 | 1012.1 |
| 20260507230004 | 49 | 250 | 0.0 | 3.0 | 0.00 | 0.05 | 0.01 | 63 | 1012.0 |
| 20260507224508 | 49 | 271 | 1.0 | 4.0 | 0.00 | 0.12 | 0.01 | 61 | 1012.2 |
| 20260507223003 | 49 | 279 | 0.0 | 4.0 | 0.00 | 0.12 | 0.01 | 62 | 1012.1 |
| 20260507221502 | 49 | 234 | 0.0 | 3.0 | 0.01 | 0.12 | 0.01 | 64 | 1012.1 |
| 20260507220001 | 49 | 348 | 0.0 | 4.0 | 0.01 | 0.12 | 0.01 | 63 | 1012.2 |
| 20260507214501 | 49 | 284 | 0.0 | 4.0 | 0.01 | 0.12 | 0.01 | 63 | 1012.2 |
| 20260507213100 | 50 | 304 | 1.0 | 6.0 | 0.01 | 0.12 | 0.01 | 60 | 1012.1 |
| 20260507211609 | 51 | 275 | 1.0 | 6.0 | 0.00 | 0.11 | 0.00 | 62 | 1012.1 |
| 20260507210159 | 51 | 273 | 0.0 | 6.0 | 0.00 | 0.11 | 0.00 | 62 | 1012.1 |
| 20260507204558 | 50 | 269 | 0.0 | 4.0 | 0.00 | 0.11 | 0.00 | 66 | 1012.1 |
| 20260507203058 | 50 | 39 | 0.0 | 3.0 | 0.00 | 0.11 | 0.00 | 68 | 1012.0 |
| 20260507201557 | 50 | 322 | 0.0 | 2.0 | 0.00 | 0.11 | 0.00 | 67 | 1012.2 |
| 20260507200055 | 50 | 290 | 0.0 | 3.0 | 0.00 | 0.11 | 0.00 | 67 | 1012.2 |
| 20260507194554 | 50 | 311 | 0.0 | 3.0 | 0.00 | 0.11 | 0.00 | 66 | 1012.4 |
| 20260507193058 | 50 | 311 | 1.0 | 4.0 | 0.00 | 0.11 | 0.00 | 68 | 1012.4 |
| 20260507191552 | 50 | 271 | 0.0 | 4.0 | 0.00 | 0.11 | 0.00 | 69 | 1012.7 |
| 20260507190051 | 50 | 30 | 2.0 | 5.0 | 0.00 | 0.11 | 0.00 | 66 | 1012.7 |
| 20260507184550 | 52 | 273 | 1.0 | 7.0 | 0.00 | 0.11 | 0.00 | 58 | 1012.7 |
| 20260507183050 | 52 | 271 | 1.0 | 7.0 | 0.00 | 0.11 | 0.00 | 58 | 1012.7 |
| 20260507181548 | 53 | 286 | 3.0 | 9.0 | 0.00 | 0.11 | 0.00 | 57 | 1012.9 |
| 20260507180050 | 53 | 249 | 1.0 | 4.0 | 0.00 | 0.11 | 0.00 | 60 | 1013.0 |
| 20260507174607 | 54 | 283 | 4.0 | 9.0 | 0.00 | 0.11 | 0.00 | 57 | 1012.9 |
| 20260507173043 | 53 | 248 | 2.0 | 8.0 | 0.00 | 0.11 | 0.00 | 58 | 1013.1 |
| 20260507171559 | 52 | 265 | 1.0 | 4.0 | 0.00 | 0.11 | 0.00 | 60 | 1013.2 |
| 20260507170037 | 52 | 175 | 2.0 | 7.0 | 0.00 | 0.11 | 0.00 | 59 | 1013.5 |
| 20260507164538 | 51 | 273 | 1.0 | 4.0 | 0.00 | 0.11 | 0.00 | 58 | 1013.5 |
| 20260507163036 | 52 | 288 | 3.0 | 10.0 | 0.00 | 0.11 | 0.00 | 63 | 1013.8 |
| 20260507161538 | 52 | 274 | 0.0 | 9.0 | 0.00 | 0.11 | 0.00 | 63 | 1013.9 |
| 20260507160024 | 52 | 292 | 1.0 | 9.0 | 0.00 | 0.11 | 0.00 | 65 | 1014.1 |
| 20260507154523 | 51 | 293 | 2.0 | 10.0 | 0.00 | 0.11 | 0.00 | 67 | 1014.1 |
| 20260507153026 | 51 | 322 | 2.0 | 9.0 | 0.00 | 0.11 | 0.00 | 66 | 1014.3 |